2015-049G (40905 NORAD) Tracking and Keplerian Element Data

This shows tracking and keplerian element data for the satellite.

Feedback or suggestion? Click here.




ElementValue
Catalog40905
Name2015-049G
Epoch Orbit38803
Epoch Day270.16932377
Epoch Year2022
RAAN268.9989
Inclination97.5193
Eccentricity0.0015666
Argument of Perigee26.6143
Mean Anonmoly35.6888
Mean Motion15.17069834
Decay Rate3.532E-05
L11 40905U 15049G 22270.16932377 .00003532 00000+0 18134-3 0 9990
L22 40905 97.5193 268.9989 0015666 26.6143 35.6888 15.17069834388035

Live tracking and technical data element details for 2015-049G (NORAD 40905). 2015-049G can be tracked NOW for your location showing map with azimuth and elevation plus other details from your city location.

Track the satellite on the map from your city or location and see movement details for azimuth, elevation, latitude, longitude, range, height, and movement on the map or in text.







IsCatalogInMostPopularTable: catalog: 40905, numindb: 634
Update: records affected: 1



GetName: 40905 2015-049G

Hit Count: updated at: Thu, 29 Sep 2022 11:27:40 GMT